Rush City, MN

5:56 PM CST on January 17, 2017 (GMT -0600)
Rush City Regional

Weather History for KROS - January, 2013

Change the Weather History Date:

Thursday, January 3, 2013

  Actual Average (KCBG) Record (KCBG)
Temperature  
Mean Temperature 15 °F -  
Max Temperature 20 °F 17 °F 43 °F (1962)
Min Temperature 10 °F 0 °F -25 °F (1968)
Degree Days  
Heating Degree Days 50    
Moisture  
Dew Point 10 °F    
Average Humidity 79    
Maximum Humidity 92    
Minimum Humidity 62    
Precipitation  
Precipitation 0.00 in - - ()
Sea Level Pressure  
Sea Level Pressure 30.13 in    
Wind  
Wind Speed 6 mph (West)    
Max Wind Speed 14 mph    
Max Gust Speed 17 mph    
Visibility 10 miles    
Events      
Averages and records for this station are not official NWS values.
T = Trace of Precipitation, MM = Missing Value Source: NWS Daily Summary

Daily Weather History Graph

Daily Weather History Graph

Search for Another Location

Airport or City:

Trip Planner

Search our weather history database for the weather conditions in past years. The results will help you decide how hot, cold, wet, or windy it might be!

Date:

Astronomy

Jan. 03, 2013 Rise Set
Actual Time 7:52 AM CST 4:40 PM CST
Civil Twilight 7:18 AM CST 5:14 PM CST
Nautical Twilight 6:41 AM CST 5:52 PM CST
Astronomical Twilight 6:05 AM CST 6:28 PM CST
Moon 11:38 PM CST (1/3) 10:44 AM CST (1/3)
Length of Visible Light 9h 56m
Length of Day
8h 48m
Waning Gibbous, 65% of the Moon is Illuminated
Jan 3
Waning Gibbous
Jan 4
Last Quarter
Jan 11
New
Jan 18
First Quarter
Jan 26
Full

Hourly Weather History & Observations

Time (CST) Temp. Windchill Dew Point Humidity Pressure Visibility Wind Dir Wind Speed Gust Speed Precip Events Conditions
12:14 AM 15.8 °F - 13.8 °F 92% 30.05 in 10.0 mi Calm Calm - N/A   Overcast
12:35 AM 16.3 °F - 14.0 °F 90% 30.05 in 10.0 mi Calm Calm - N/A   Overcast
12:55 AM 16.5 °F - 14.4 °F 91% 30.05 in 10.0 mi Calm Calm - N/A   Overcast
1:14 AM 16.7 °F - 14.7 °F 92% 30.05 in 10.0 mi Calm Calm - N/A   Overcast
1:35 AM 17.2 °F - 14.9 °F 91% 30.06 in 10.0 mi Calm Calm - N/A   Overcast
1:55 AM 17.8 °F - 15.6 °F 91% 30.06 in 10.0 mi Calm Calm - N/A   Overcast
2:14 AM 18.7 °F 11.9 °F 16.5 °F 91% 30.07 in 10.0 mi WNW 4.6 mph - N/A   Overcast
2:35 AM 20.8 °F 9.0 °F 18.1 °F 89% 30.07 in 10.0 mi WNW 11.5 mph - N/A   Overcast
2:54 AM 20.8 °F 10.4 °F 17.4 °F 87% 30.08 in 10.0 mi WNW 9.2 mph - N/A   Overcast
3:15 AM 20.3 °F 9.0 °F 16.7 °F 86% 30.08 in 10.0 mi WNW 10.4 mph - N/A   Overcast
3:35 AM 19.6 °F 8.1 °F 16.0 °F 86% 30.09 in 10.0 mi WNW 10.4 mph - N/A   Overcast
3:54 AM 19.2 °F 10.2 °F 15.6 °F 86% 30.09 in 10.0 mi WNW 6.9 mph - N/A   Overcast
4:15 AM 19.2 °F 8.4 °F 15.6 °F 86% 30.10 in 10.0 mi WNW 9.2 mph - N/A   Overcast
4:35 AM 18.5 °F 7.5 °F 14.7 °F 85% 30.11 in 10.0 mi NW 9.2 mph 17.3 mph N/A   Overcast
4:54 AM 18.1 °F 7.9 °F 13.8 °F 83% 30.11 in 10.0 mi NW 8.1 mph 16.1 mph N/A   Overcast
5:15 AM 17.6 °F 3.7 °F 13.1 °F 83% 30.12 in 10.0 mi WNW 13.8 mph 17.3 mph N/A   Overcast
5:35 AM 17.4 °F 5.4 °F 13.1 °F 83% 30.13 in 10.0 mi NW 10.4 mph - N/A   Overcast
5:54 AM 17.2 °F 6.0 °F 12.9 °F 83% 30.14 in 10.0 mi NW 9.2 mph - N/A   Overcast
6:15 AM 16.7 °F 7.2 °F 12.6 °F 84% 30.15 in 10.0 mi NW 6.9 mph - N/A   Overcast
6:35 AM 16.7 °F 7.2 °F 12.2 °F 82% 30.15 in 10.0 mi NNW 6.9 mph - N/A   Overcast
6:54 AM 16.5 °F 8.1 °F 12.2 °F 83% 30.16 in 10.0 mi NW 5.8 mph - N/A   Overcast
7:15 AM 16.5 °F 8.1 °F 12.2 °F 83% 30.16 in 10.0 mi NW 5.8 mph - N/A   Overcast
7:35 AM 16.3 °F 7.8 °F 12.0 °F 83% 30.16 in 10.0 mi NW 5.8 mph - N/A   Overcast
7:54 AM 16.2 °F 4.7 °F 12.0 °F 84% 30.17 in 10.0 mi WNW 9.2 mph - N/A   Overcast
8:15 AM 15.8 °F 5.1 °F 11.3 °F 82% 30.18 in 10.0 mi NNW 8.1 mph - N/A   Overcast
8:35 AM 15.8 °F 6.1 °F 10.9 °F 81% 30.18 in 10.0 mi NW 6.9 mph - N/A   Overcast
8:55 AM 15.4 °F 5.6 °F 10.4 °F 80% 30.18 in 10.0 mi WNW 6.9 mph - N/A   Overcast
9:15 AM 15.3 °F 4.4 °F 10.0 °F 80% 30.19 in 10.0 mi WNW 8.1 mph - N/A   Overcast
9:35 AM 14.7 °F 3.8 °F 9.1 °F 79% 30.20 in 10.0 mi NW 8.1 mph - N/A   Overcast
9:55 AM 14.9 °F 5.0 °F 8.6 °F 76% 30.21 in 10.0 mi NW 6.9 mph - N/A   Overcast
10:15 AM 14.9 °F 6.1 °F 8.6 °F 76% 30.22 in 10.0 mi NW 5.8 mph - N/A   Overcast
10:35 AM 14.7 °F 5.9 °F 8.4 °F 76% 30.22 in 10.0 mi NW 5.8 mph - N/A   Overcast
10:55 AM 14.4 °F 6.9 °F 8.1 °F 76% 30.21 in 10.0 mi NW 4.6 mph - N/A   Overcast
11:15 AM 15.4 °F 8.1 °F 8.6 °F 74% 30.21 in 10.0 mi West 4.6 mph - N/A   Overcast
11:35 AM 16.0 °F 8.8 °F 8.8 °F 73% 30.20 in 10.0 mi West 4.6 mph - N/A   Mostly Cloudy
11:55 AM 17.6 °F 8.2 °F 9.3 °F 70% 30.19 in 10.0 mi West 6.9 mph - N/A   Scattered Clouds
12:15 PM 17.2 °F 6.8 °F 9.0 °F 70% 30.18 in 10.0 mi WSW 8.1 mph - N/A   Scattered Clouds
12:35 PM 17.4 °F 8.0 °F 9.0 °F 69% 30.18 in 10.0 mi West 6.9 mph - N/A   Clear
12:54 PM 17.6 °F 5.7 °F 8.6 °F 68% 30.18 in 10.0 mi West 10.4 mph - N/A   Clear
1:15 PM 17.6 °F 6.4 °F 8.4 °F 67% 30.18 in 10.0 mi West 9.2 mph - N/A   Clear
1:35 PM 16.5 °F 6.9 °F 7.7 °F 68% 30.17 in 10.0 mi WSW 6.9 mph - N/A   Clear
1:54 PM 16.3 °F 5.7 °F 7.3 °F 68% 30.17 in 10.0 mi WSW 8.1 mph - N/A   Clear
2:15 PM 15.4 °F 4.6 °F 6.3 °F 67% 30.17 in 10.0 mi SW 8.1 mph - N/A   Clear
2:35 PM 15.1 °F 4.2 °F 5.4 °F 65% 30.17 in 10.0 mi WSW 8.1 mph - N/A   Clear
2:54 PM 14.9 °F 2.3 °F 4.5 °F 63% 30.17 in 10.0 mi WSW 10.4 mph - N/A   Clear
3:53 PM 14.0 °F 2.0 °F 3.0 °F 62% 30.17 in 10.0 mi SW 9.2 mph - N/A   Clear
4:15 PM 13.8 °F 6.2 °F 3.2 °F 63% 30.17 in 10.0 mi WSW 4.6 mph - N/A   Clear
4:34 PM 13.3 °F 3.0 °F 3.7 °F 66% 30.18 in 10.0 mi WSW 6.9 mph - N/A   Clear
4:55 PM 12.6 °F 3.4 °F 3.2 °F 66% 30.18 in 10.0 mi SW 5.8 mph - N/A   Clear
5:15 PM 12.7 °F 2.4 °F 3.7 °F 67% 30.17 in 10.0 mi SW 6.9 mph - N/A   Clear
5:34 PM 12.2 °F 1.7 °F 3.7 °F 69% 30.16 in 10.0 mi SW 6.9 mph - N/A   Clear
5:55 PM 12.0 °F 1.5 °F 4.1 °F 71% 30.15 in 10.0 mi SSW 6.9 mph - N/A   Clear
6:15 PM 11.5 °F 0.9 °F 4.1 °F 72% 30.15 in 10.0 mi SSW 6.9 mph - N/A   Clear
6:35 PM 11.3 °F -0.4 °F 4.8 °F 75% 30.14 in 10.0 mi SW 8.1 mph - N/A   Scattered Clouds
6:55 PM 12.2 °F 0.7 °F 6.4 °F 78% 30.12 in 10.0 mi SSW 8.1 mph - N/A   Mostly Cloudy
7:14 PM 11.7 °F 1.1 °F 6.1 °F 78% 30.12 in 10.0 mi SSW 6.9 mph - N/A   Scattered Clouds
7:35 PM 11.3 °F -2.2 °F 5.9 °F 79% 30.11 in 10.0 mi SSW 10.4 mph - N/A   Clear
7:54 PM 11.1 °F -2.4 °F 6.3 °F 81% 30.10 in 10.0 mi SSW 10.4 mph - N/A   Clear
8:15 PM 11.1 °F 0.4 °F 6.4 °F 81% 30.09 in 10.0 mi SW 6.9 mph - N/A   Clear
8:35 PM 11.1 °F 1.7 °F 6.8 °F 83% 30.09 in 10.0 mi SW 5.8 mph - N/A   Clear
8:54 PM 10.9 °F -0.8 °F 6.8 °F 83% 30.08 in 10.0 mi SSW 8.1 mph - N/A   Clear
9:15 PM 10.9 °F 0.2 °F 7.0 °F 84% 30.08 in 10.0 mi SSW 6.9 mph - N/A   Clear
9:35 PM 11.1 °F -0.6 °F 7.3 °F 85% 30.07 in 10.0 mi SSW 8.1 mph - N/A   Clear
9:54 PM 11.1 °F -1.6 °F 7.5 °F 85% 30.06 in 10.0 mi SSW 9.2 mph - N/A   Clear
10:15 PM 11.3 °F -0.4 °F 7.7 °F 85% 30.06 in 10.0 mi SSW 8.1 mph - N/A   Clear
10:35 PM 11.3 °F -1.3 °F 8.1 °F 87% 30.05 in 10.0 mi SSW 9.2 mph - N/A   Clear
10:55 PM 11.5 °F -1.1 °F 8.4 °F 87% 30.03 in 10.0 mi SSW 9.2 mph - N/A   Clear
11:15 PM 12.0 °F -1.3 °F 8.6 °F 86% 30.02 in 10.0 mi SSW 10.4 mph - N/A   Clear
11:34 PM 12.2 °F -1.0 °F 9.1 °F 88% 30.01 in 10.0 mi SSW 10.4 mph - N/A   Clear
11:55 PM 13.1 °F 1.8 °F 10.0 °F 88% 30.00 in 10.0 mi SSW 8.1 mph - N/A   Clear